Tracking 30918 objects as of 2-Jul-2025
HD Live streaming from Space Station
objects crossing your sky now

CZ-4B DEB

Track CZ-4B DEB now!
10-day predictions


NORAD ID: 43660
Int'l Code: 2018-081D
Perigee: 925.1 km
Apogee: 943.2 km
Inclination: 99.1 °
Period: 103.6 minutes
Semi major axis: 7305 km
RCS: Unknown
Launch date: October 24, 2018
Source: People's Republic of China (PRC)
Launch site: Taiyaun Space Center, China (TSC)

Note: This is SATELLITE DEBRIS
Your satellite tracking list
Your tracking list is empty




NASA's NSSDC Master Catalog

Two Line Element Set (TLE):
1 43660U 18081D   25179.83270970  .00000040  00000-0  67841-4 0  9991
2 43660  99.1449 209.5915 0012388 232.2277 127.7760 13.90475442338806
Source of the keplerian elements: AFSPC